Cando, ND

3:41 PM CST on December 08, 2019 (GMT -0600)
Cando

Weather History for K9D7 - November, 2019

Change the Weather History Date:

Tuesday, November 12, 2019

  Actual Average (WUND) Record (WUND)
Temperature  
Mean Temperature 12 °F -  
Max Temperature 24 °F - - (-1)
Min Temperature 0 °F - - (-1)
Degree Days  
Heating Degree Days 53    
Moisture  
Dew Point 10 °F    
Average Humidity 81    
Maximum Humidity 100    
Minimum Humidity 58    
Precipitation  
Precipitation 0.00 in - - ()
Sea Level Pressure  
Sea Level Pressure 29.96 in    
Wind  
Wind Speed 12 mph (SSW)    
Max Wind Speed 21 mph    
Max Gust Speed 29 mph    
Visibility 10 miles    
Events Snow    
Averages and records for this station are not official NWS values.
T = Trace of Precipitation, MM = Missing Value Source: NWS Daily Summary

Daily Weather History Graph

Daily Weather History Graph

Search for Another Location

Airport or City:

Astronomy

Nov. 12, 2019 Rise Set
Actual Time 7:39 AM CST 5:01 PM CST
Civil Twilight 7:05 AM CST 5:35 PM CST
Nautical Twilight 6:28 AM CST 6:13 PM CST
Astronomical Twilight 5:51 AM CST 6:50 PM CST
Moon 5:31 PM CST (11/12) 7:29 AM CST (11/12)
Length of Visible Light 10h 29m
Length of Day
9h 21m
Full, 100% of the Moon is Illuminated
Nov 12
Full
Nov 19
Last Quarter
Nov 26
New
Dec 4
First Quarter
Dec 11
Full

Hourly Weather History & Observations

Time (CST) Temp. Windchill Dew Point Humidity Pressure Visibility Wind Dir Wind Speed Gust Speed Precip Events Conditions
12:35 AM 1.4 °F -12.5 °F -0.4 °F 92% 30.40 in 10.0 mi SSW 8.1 mph - N/A   Clear
12:55 AM 1.4 °F -12.5 °F -0.4 °F 92% 30.39 in 10.0 mi SSW 8.1 mph - N/A   Clear
1:15 AM 1.4 °F -13.5 °F -0.4 °F 92% 30.37 in 10.0 mi South 9.2 mph - N/A   Clear
2:15 AM -0.4 °F -15.7 °F -2.2 °F 92% 30.34 in 10.0 mi South 9.2 mph - N/A   Clear
2:35 AM 1.4 °F -14.5 °F -0.4 °F 92% 30.32 in 10.0 mi South 10.4 mph - N/A   Clear
2:55 AM 1.4 °F -14.5 °F -0.4 °F 92% 30.31 in 10.0 mi South 10.4 mph - N/A   Clear
3:15 AM 1.4 °F -15.3 °F -0.4 °F 92% 30.29 in 10.0 mi South 11.5 mph - N/A   Clear
3:35 AM 3.2 °F -14.6 °F -0.4 °F 85% 30.27 in 10.0 mi South 13.8 mph - N/A   Clear
3:55 AM 3.2 °F -13.9 °F -0.4 °F 85% 30.26 in 10.0 mi South 12.7 mph - N/A   Clear
4:15 AM 3.2 °F -14.6 °F 1.4 °F 92% 30.23 in 10.0 mi South 13.8 mph - N/A   Clear
4:35 AM 5.0 °F -12.3 °F 1.4 °F 85% 30.20 in 10.0 mi South 13.8 mph - N/A   Clear
4:55 AM 5.0 °F -13.6 °F 1.4 °F 85% 30.19 in 10.0 mi South 16.1 mph - N/A   Clear
5:35 AM 5.0 °F -14.2 °F 1.4 °F 85% 30.16 in 10.0 mi South 17.3 mph - N/A   Clear
5:55 AM 5.0 °F -13.6 °F 1.4 °F 85% 30.16 in 10.0 mi South 16.1 mph 23.0 mph N/A   Clear
6:15 AM 6.8 °F -12.4 °F 3.2 °F 85% 30.13 in 10.0 mi South 18.4 mph - N/A   Clear
6:35 AM 6.8 °F -10.7 °F 3.2 °F 85% 30.11 in 10.0 mi South 15.0 mph 21.9 mph N/A   Clear
6:55 AM 6.8 °F -11.3 °F 3.2 °F 85% 30.10 in 10.0 mi South 16.1 mph 21.9 mph N/A   Clear
7:15 AM 6.8 °F -10.0 °F 3.2 °F 85% 30.09 in 10.0 mi South 13.8 mph - N/A   Clear
7:35 AM 6.8 °F -11.3 °F 5.0 °F 92% 30.08 in 10.0 mi South 16.1 mph - N/A   Clear
7:55 AM 6.8 °F -10.7 °F 5.0 °F 92% 30.05 in 10.0 mi South 15.0 mph 21.9 mph N/A   Clear
8:15 AM 6.8 °F -10.0 °F 5.0 °F 92% 30.03 in 10.0 mi SSE 13.8 mph 20.7 mph N/A   Clear
8:35 AM 8.6 °F -8.3 °F 6.8 °F 92% 30.02 in 10.0 mi SSE 15.0 mph - N/A   Clear
8:55 AM 8.6 °F -8.9 °F 6.8 °F 92% 30.01 in 10.0 mi South 16.1 mph - N/A   Clear
9:15 AM 10.4 °F -8.6 °F 6.8 °F 85% 29.99 in 10.0 mi South 20.7 mph - N/A   Clear
9:35 AM 12.2 °F -5.3 °F 6.8 °F 79% 29.97 in 10.0 mi South 18.4 mph 27.6 mph N/A   Clear
9:55 AM 14.0 °F -3.9 °F 6.8 °F 73% 29.97 in 10.0 mi South 20.7 mph 28.8 mph N/A   Clear
10:15 AM 14.0 °F -3.9 °F 6.8 °F 73% 29.96 in 10.0 mi South 20.7 mph 26.5 mph N/A   Clear
10:35 AM 14.0 °F -2.0 °F 8.6 °F 79% 29.95 in 10.0 mi South 16.1 mph 24.2 mph N/A   Clear
10:55 AM 15.8 °F 0.3 °F 8.6 °F 73% 29.95 in 10.0 mi South 16.1 mph 23.0 mph N/A   Clear
11:35 AM 17.6 °F 2.2 °F 10.4 °F 73% 29.93 in 10.0 mi South 17.3 mph - N/A   Clear
11:55 AM 19.4 °F 4.1 °F 10.4 °F 68% 29.92 in 10.0 mi South 18.4 mph 24.2 mph N/A   Clear
12:15 PM 19.4 °F 5.5 °F 10.4 °F 68% 29.91 in 10.0 mi South 15.0 mph 21.9 mph N/A   Scattered Clouds
12:35 PM 19.4 °F 6.0 °F 10.4 °F 68% 29.89 in 10.0 mi South 13.8 mph 20.7 mph N/A   Mostly Cloudy
1:15 PM 21.2 °F 8.3 °F 8.6 °F 58% 29.88 in 10.0 mi South 13.8 mph 21.9 mph N/A   Mostly Cloudy
1:35 PM 21.2 °F 6.8 °F 10.4 °F 63% 29.86 in 10.0 mi South 17.3 mph - N/A   Partly Cloudy
1:55 PM 21.2 °F 7.8 °F 10.4 °F 63% 29.85 in 10.0 mi South 15.0 mph 20.7 mph N/A   Partly Cloudy
2:15 PM 21.2 °F 9.5 °F 10.4 °F 63% 29.84 in 10.0 mi South 11.5 mph 18.4 mph N/A   Mostly Cloudy
2:35 PM 21.2 °F 10.1 °F 10.4 °F 63% 29.82 in 10.0 mi SSW 10.4 mph 17.3 mph N/A   Overcast
2:55 PM 21.2 °F 8.3 °F 10.4 °F 63% 29.82 in 10.0 mi South 13.8 mph 19.6 mph N/A   Overcast
3:15 PM 21.2 °F 7.8 °F 10.4 °F 63% 29.81 in 10.0 mi SSW 15.0 mph - N/A   Mostly Cloudy
3:35 PM 21.2 °F 7.8 °F 10.4 °F 63% 29.80 in 10.0 mi South 15.0 mph 21.9 mph N/A   Overcast
3:55 PM 21.2 °F 8.3 °F 12.2 °F 68% 29.82 in 10.0 mi SSW 13.8 mph - N/A   Mostly Cloudy
4:15 PM 21.2 °F 8.9 °F 12.2 °F 68% 29.82 in 10.0 mi SSW 12.7 mph - N/A   Mostly Cloudy
4:35 PM 21.2 °F 9.5 °F 12.2 °F 68% 29.81 in 10.0 mi SSW 11.5 mph - N/A   Mostly Cloudy
4:55 PM 21.2 °F 9.5 °F 12.2 °F 68% 29.80 in 10.0 mi South 11.5 mph - N/A   Overcast
5:15 PM 21.2 °F 10.9 °F 12.2 °F 68% 29.81 in 10.0 mi South 9.2 mph - N/A   Overcast
5:35 PM 21.2 °F 11.7 °F 14.0 °F 74% 29.81 in 10.0 mi SSW 8.1 mph - N/A   Overcast
5:55 PM 21.2 °F 11.7 °F 14.0 °F 74% 29.81 in 10.0 mi SSW 8.1 mph - N/A   Overcast
6:15 PM 21.2 °F 11.7 °F 14.0 °F 74% 29.80 in 10.0 mi SSW 8.1 mph - N/A   Overcast
6:35 PM 21.2 °F 10.9 °F 14.0 °F 74% 29.79 in 10.0 mi SSW 9.2 mph - N/A   Overcast
6:55 PM 21.2 °F 11.7 °F 14.0 °F 74% 29.79 in 10.0 mi SSW 8.1 mph - N/A   Overcast
7:15 PM 21.2 °F 9.5 °F 14.0 °F 74% 29.79 in 10.0 mi SSW 11.5 mph - N/A   Overcast
7:35 PM 21.2 °F 10.1 °F 15.8 °F 80% 29.77 in 10.0 mi South 10.4 mph - N/A   Overcast
7:55 PM 21.2 °F 11.7 °F 15.8 °F 80% 29.77 in 9.0 mi SSW 8.1 mph 13.8 mph N/A   Overcast
8:15 PM 21.2 °F 10.1 °F 17.6 °F 86% 29.78 in 10.0 mi SW 10.4 mph - N/A   Overcast
8:35 PM 23.0 °F 14.7 °F 17.6 °F 80% 29.77 in 10.0 mi SSW 6.9 mph - N/A   Overcast
9:15 PM 23.0 °F 13.1 °F 19.4 °F 86% 29.76 in 10.0 mi SW 9.2 mph - N/A   Overcast
9:35 PM 23.0 °F 12.4 °F 23.0 °F 100% 29.76 in 10.0 mi SW 10.4 mph - N/A   Overcast
9:55 PM 23.0 °F 13.9 °F 23.0 °F 100% 29.76 in 10.0 mi SW 8.1 mph - N/A   Overcast
10:15 PM 23.0 °F 13.1 °F 23.0 °F 100% 29.76 in 10.0 mi WSW 9.2 mph - N/A   Overcast
10:35 PM 24.8 °F 16.1 °F 24.8 °F 100% 29.76 in 9.0 mi WSW 8.1 mph - N/A   Overcast
10:55 PM 24.8 °F 16.1 °F 24.8 °F 100% 29.76 in 10.0 mi West 8.1 mph - N/A   Overcast
11:15 PM 24.8 °F 16.1 °F 24.8 °F 100% 29.75 in 9.0 mi West 8.1 mph - N/A   Overcast
11:35 PM 24.8 °F 16.9 °F 24.8 °F 100% 29.75 in 9.0 mi WNW 6.9 mph - N/A   Overcast
11:55 PM 24.8 °F 17.9 °F 24.8 °F 100% 29.75 in 7.0 mi NW 5.8 mph - N/A Snow Light Snow